TimeEST,TemperatureF,Dew PointF,Humidity,Sea Level PressureIn,VisibilityMPH,Wind Direction,Wind SpeedMPH,Gust SpeedMPH,PrecipitationIn,Events,Conditions,WindDirDegrees,DateUTC
12:53 AM,33.1,32.0,96,30.07,4.0,Calm,Calm,-,0.06,Rain,Light Rain,0,2013-01-01 05:53:00
1:04 AM,33.8,32.0,93,30.05,3.0,Calm,Calm,-,0.00,,Overcast,0,2013-01-01 06:04:00
1:26 AM,33.8,32.0,93,30.05,2.5,Calm,Calm,-,0.02,Rain,Light Rain,0,2013-01-01 06:26:00
1:47 AM,33.8,33.8,100,30.03,3.0,Calm,Calm,-,0.03,Rain,Light Rain,0,2013-01-01 06:47:00
1:48 AM,33.1,33.1,100,30.05,3.0,Calm,Calm,-,0.03,Rain,Light Rain,0,2013-01-01 06:48:00
2:00 AM,33.8,33.8,100,30.04,2.5,Calm,Calm,-,0.00,,Overcast,0,2013-01-01 07:00:00
2:38 AM,33.8,33.8,100,30.04,1.8,Calm,Calm,-,0.02,,Overcast,0,2013-01-01 07:38:00
2:53 AM,33.1,32.0,96,30.07,1.2,Calm,Calm,-,0.02,,Overcast,0,2013-01-01 07:53:00
3:43 AM,33.8,33.8,100,30.05,2.0,Calm,Calm,-,0.01,,Overcast,0,2013-01-01 08:43:00
3:53 AM,33.1,33.1,100,30.06,2.5,Calm,Calm,-,0.01,,Overcast,0,2013-01-01 08:53:00
4:14 AM,33.8,33.8,100,30.04,2.0,Calm,Calm,-,N/A,,Overcast,0,2013-01-01 09:14:00
4:28 AM,33.8,33.8,100,30.04,2.0,Calm,Calm,-,N/A,,Overcast,0,2013-01-01 09:28:00
4:49 AM,33.8,32.0,93,30.05,1.8,Calm,Calm,-,N/A,,Overcast,0,2013-01-01 09:49:00
4:53 AM,33.1,32.0,96,30.07,1.8,Calm,Calm,-,N/A,,Overcast,0,2013-01-01 09:53:00
5:01 AM,33.8,32.0,93,30.05,1.8,Calm,Calm,-,N/A,,Overcast,0,2013-01-01 10:01:00
5:13 AM,33.8,33.8,100,30.04,1.8,Calm,Calm,-,N/A,,Overcast,0,2013-01-01 10:13:00
5:53 AM,33.1,33.1,100,30.06,2.0,Calm,Calm,-,N/A,,Overcast,0,2013-01-01 10:53:00
6:06 AM,33.8,33.8,100,30.04,2.0,Calm,Calm,-,N/A,,Overcast,0,2013-01-01 11:06:00
6:13 AM,33.8,33.8,100,30.04,2.5,Calm,Calm,-,N/A,,Overcast,0,2013-01-01 11:13:00
6:18 AM,33.8,33.8,100,30.04,2.5,Calm,Calm,-,N/A,,Overcast,0,2013-01-01 11:18:00
6:28 AM,33.8,32.0,93,30.04,1.0,Calm,Calm,-,N/A,,Overcast,0,2013-01-01 11:28:00
6:39 AM,33.8,32.0,93,30.05,1.2,NW,3.5,-,N/A,,Overcast,310,2013-01-01 11:39:00
6:47 AM,33.8,32.0,93,30.05,0.8,NNW,3.5,-,N/A,,Mist,330,2013-01-01 11:47:00
6:48 AM,33.1,33.1,100,30.07,0.8,NNW,3.5,-,N/A,,Mist,330,2013-01-01 11:48:00
7:10 AM,33.8,33.8,100,30.07,1.0,Calm,Calm,-,N/A,,Mist,0,2013-01-01 12:10:00
7:17 AM,33.8,33.8,100,30.07,1.2,Calm,Calm,-,N/A,,Overcast,0,2013-01-01 12:17:00
7:36 AM,33.8,33.8,100,30.07,1.0,Calm,Calm,-,N/A,,Overcast,0,2013-01-01 12:36:00
7:53 AM,33.1,33.1,100,30.08,2.0,Calm,Calm,-,N/A,,Overcast,0,2013-01-01 12:53:00
8:10 AM,33.8,33.8,100,30.07,3.0,Calm,Calm,-,N/A,,Overcast,0,2013-01-01 13:10:00
8:19 AM,33.8,33.8,100,30.08,2.5,Calm,Calm,-,N/A,,Overcast,0,2013-01-01 13:19:00
8:53 AM,33.1,32.0,96,30.10,2.5,Calm,Calm,-,N/A,,Overcast,0,2013-01-01 13:53:00
9:05 AM,33.8,33.8,100,30.07,3.0,Calm,Calm,-,N/A,,Overcast,0,2013-01-01 14:05:00
9:53 AM,34.0,32.0,92,30.08,6.0,North,3.5,-,N/A,,Overcast,10,2013-01-01 14:53:00
10:37 AM,33.8,32.0,93,30.07,5.0,Calm,Calm,-,N/A,,Overcast,0,2013-01-01 15:37:00
10:53 AM,34.0,32.0,92,30.11,7.0,NNW,4.6,-,N/A,,Overcast,340,2013-01-01 15:53:00
11:53 AM,35.1,32.0,89,30.08,9.0,Calm,Calm,-,N/A,,Overcast,0,2013-01-01 16:53:00
12:53 PM,35.1,32.0,89,30.06,10.0,Calm,Calm,-,N/A,,Overcast,0,2013-01-01 17:53:00
1:26 PM,35.6,32.0,87,30.06,10.0,NW,3.5,-,N/A,,Overcast,310,2013-01-01 18:26:00
1:53 PM,35.1,30.9,85,30.08,10.0,NW,4.6,-,N/A,,Overcast,320,2013-01-01 18:53:00
2:53 PM,35.1,30.9,85,30.08,10.0,NNW,4.6,-,N/A,,Overcast,330,2013-01-01 19:53:00
3:01 PM,33.8,30.2,87,30.07,8.0,NW,6.9,-,N/A,,Overcast,320,2013-01-01 20:01:00
3:53 PM,34.0,30.9,89,30.07,6.0,Variable,3.5,-,N/A,,Overcast,0,2013-01-01 20:53:00
4:04 PM,33.8,30.2,87,30.05,6.0,North,3.5,-,N/A,,Overcast,360,2013-01-01 21:04:00
4:25 PM,33.8,30.2,87,30.06,6.0,North,6.9,-,N/A,,Overcast,350,2013-01-01 21:25:00
4:50 PM,33.8,30.2,87,30.06,7.0,North,5.8,-,N/A,,Overcast,350,2013-01-01 21:50:00
4:53 PM,34.0,30.0,85,30.08,7.0,NNW,5.8,-,N/A,,Overcast,330,2013-01-01 21:53:00
5:16 PM,33.8,30.2,87,30.06,7.0,North,3.5,-,N/A,,Overcast,350,2013-01-01 22:16:00
5:46 PM,33.8,30.2,87,30.06,9.0,Calm,Calm,-,N/A,,Overcast,0,2013-01-01 22:46:00
5:53 PM,33.1,30.9,92,30.08,9.0,NNW,3.5,-,N/A,,Overcast,340,2013-01-01 22:53:00
6:45 PM,33.8,30.2,87,30.07,8.0,North,5.8,-,N/A,,Overcast,360,2013-01-01 23:45:00
6:53 PM,33.1,30.0,89,30.11,7.0,NNW,6.9,-,N/A,,Overcast,340,2013-01-01 23:53:00
7:53 PM,33.1,30.0,89,30.11,7.0,North,4.6,-,N/A,,Overcast,10,2013-01-02 00:53:00
8:53 PM,33.1,30.0,89,30.12,6.0,North,3.5,-,N/A,,Overcast,350,2013-01-02 01:53:00
9:10 PM,32.0,28.4,87,30.10,7.0,North,5.8,-,N/A,,Overcast,350,2013-01-02 02:10:00
9:34 PM,32.0,28.4,87,30.11,6.0,NNW,6.9,-,N/A,,Overcast,330,2013-01-02 02:34:00
9:53 PM,32.0,28.0,85,30.14,7.0,NW,5.8,-,N/A,,Overcast,320,2013-01-02 02:53:00
10:22 PM,32.0,28.4,87,30.10,6.0,Calm,Calm,-,N/A,,Overcast,0,2013-01-02 03:22:00
10:53 PM,32.0,27.0,82,30.13,6.0,NNW,5.8,-,N/A,,Haze,340,2013-01-02 03:53:00
11:09 PM,32.0,26.6,80,30.12,6.0,NNW,5.8,-,N/A,,Haze,330,2013-01-02 04:09:00
11:53 PM,30.9,27.0,85,30.15,7.0,North,3.5,-,N/A,,Overcast,360,2013-01-02 04:53:00